EW8215 Weather Reports


Display with metric or nautical units.
time (UTC)temp
F
wind
direction
speed
MPH
gust
MPH
rain 1hr
in
rain 24hr
in
rain mn
in
humidity
%
barometer
mb
20260902154021 92 153 2.0 3.0 0.00 0.00 0.00 57 1016.2
20260902153519 91 125 1.0 2.0 0.00 0.00 0.00 58 1016.2
20260902153015 92 152 3.0 3.0 0.00 0.00 0.00 58 1016.4
20260902152512 90 137 0.0 2.0 0.00 0.00 0.00 60 1016.3
20260902152007 90 145 2.0 3.0 0.00 0.00 0.00 62 1016.3
20260902151503 88 133 2.0 2.0 0.00 0.00 0.00 62 1016.1
20260902150956 88 188 4.0 5.0 0.00 0.00 0.00 64 1016.3
20260902150452 88 159 1.0 2.0 0.00 0.00 0.00 65 1016.2
20260902145952 87 217 3.0 5.0 0.00 0.00 0.00 66 1016.5
20260902145447 88 202 4.0 5.0 0.00 0.00 0.00 65 1016.3
20260902144947 86 151 2.0 3.0 0.00 0.00 0.00 68 1016.2
20260902144444 86 135 3.0 3.0 0.00 0.00 0.00 69 1016.2
20260902143943 86 154 0.0 2.0 0.00 0.00 0.00 69 1016.4
20260902143439 86 167 2.0 3.0 0.00 0.00 0.00 69 1016.5
20260902142934 85 143 2.0 2.0 0.00 0.00 0.00 71 1016.4
20260902142430 83 139 2.0 3.0 0.00 0.00 0.00 74 1016.3
20260902141925 82 157 0.0 2.0 0.00 0.00 0.00 76 1016.2
20260902141421 81 164 2.0 3.0 0.00 0.00 0.00 78 1016.4
20260902140919 81 168 2.0 2.0 0.00 0.00 0.00 78 1016.3
20260902140415 81 156 0.0 0.0 0.00 0.00 0.00 78 1016.4
20260902135909 81 160 1.0 2.0 0.00 0.00 0.00 77 1016.3
20260902135406 81 145 0.0 0.0 0.00 0.00 0.00 78 1016.3
20260902134905 82 136 0.0 0.0 0.00 0.00 0.00 76 1016.1
20260902134401 83 134 0.0 0.0 0.00 0.00 0.00 75 1016.4
20260902133901 81 150 0.0 0.0 0.00 0.00 0.00 78 1016.1
20260902133400 81 152 0.0 0.0 0.00 0.00 0.00 79 1016.1
20260902132855 80 152 0.0 0.0 0.00 0.00 0.00 81 1016.1
20260902132350 79 150 0.0 0.0 0.00 0.00 0.00 82 1015.9
20260902131846 78 150 0.0 0.0 0.00 0.00 0.00 84 1015.9
20260902131343 77 148 0.0 0.0 0.00 0.00 0.00 86 1015.9
20260902130842 76 150 0.0 0.0 0.00 0.00 0.00 87 1015.9
20260902130338 75 140 0.0 0.0 0.00 0.00 0.00 89 1015.7
20260902125833 75 146 0.0 0.0 0.00 0.00 0.00 89 1015.9
20260902125329 74 150 0.0 0.0 0.00 0.00 0.00 90 1015.9
20260902124825 74 148 0.0 0.0 0.00 0.00 0.00 91 1015.7
20260902124320 74 152 0.0 0.0 0.00 0.00 0.00 91 1015.8
20260902123815 74 151 0.0 0.0 0.00 0.00 0.00 91 1015.5
20260902123312 74 152 0.0 0.0 0.00 0.00 0.00 91 1015.6
20260902122810 74 152 0.0 0.0 0.00 0.00 0.00 91 1015.5
20260902122307 74 154 0.0 0.0 0.00 0.00 0.00 91 1015.2
20260902121806 74 154 0.0 0.0 0.00 0.00 0.00 91 1015.3
20260902121301 74 155 0.0 0.0 0.00 0.00 0.00 90 1015.5
20260902120756 74 155 0.0 0.0 0.00 0.00 0.00 91 1015.3
20260902120253 74 155 0.0 0.0 0.00 0.00 0.00 91 1015.3
20260902115747 74 152 0.0 0.0 0.00 0.00 0.00 91 1015.2
20260902115243 74 152 0.0 0.0 0.00 0.00 0.00 91 1015.3
20260902114739 74 151 0.0 0.0 0.00 0.00 0.00 90 1015.3
20260902114235 75 151 0.0 0.0 0.00 0.00 0.00 90 1015.3
20260902113729 75 151 0.0 0.0 0.00 0.00 0.00 91 1015.2
20260902113225 75 155 0.0 0.0 0.00 0.00 0.00 90 1015.3
20260902112719 75 155 0.0 0.0 0.00 0.00 0.00 90 1015.3
20260902112216 75 151 0.0 0.0 0.00 0.00 0.00 90 1015.2
20260902111711 75 148 0.0 0.0 0.00 0.00 0.00 90 1015.4
20260902111207 75 149 0.0 0.0 0.00 0.00 0.00 90 1015.4
20260902110702 75 151 0.0 0.0 0.00 0.00 0.00 89 1015.3
20260902110158 75 151 0.0 0.0 0.00 0.00 0.00 89 1015.3
20260902105657 75 151 0.0 0.0 0.00 0.00 0.00 89 1015.5
20260902105153 75 153 0.0 0.0 0.00 0.00 0.00 89 1015.4
20260902104648 75 153 0.0 0.0 0.00 0.00 0.00 89 1015.3
20260902104144 75 153 0.0 0.0 0.00 0.00 0.00 88 1015.3
20260902103643 75 153 0.0 0.0 0.00 0.00 0.00 88 1015.3
20260902103138 75 153 0.0 0.0 0.00 0.00 0.00 88 1015.2
20260902102634 75 153 0.0 0.0 0.00 0.00 0.00 88 1015.3
20260902102132 75 153 0.0 0.0 0.00 0.00 0.00 88 1015.2
20260902101627 75 153 0.0 0.0 0.00 0.00 0.00 88 1015.2
20260902101126 75 151 0.0 0.0 0.00 0.00 0.00 88 1015.1
20260902100621 75 148 0.0 0.0 0.00 0.00 0.00 88 1015.2
20260902100116 75 149 0.0 0.0 0.00 0.00 0.00 87 1015.0
20260902095615 75 151 0.0 0.0 0.00 0.00 0.00 86 1015.0
20260902095114 75 151 0.0 0.0 0.00 0.00 0.00 87 1014.8
20260902094609 75 155 0.0 0.0 0.00 0.00 0.00 86 1014.9
20260902094106 75 159 0.0 0.0 0.00 0.00 0.00 86 1014.8
20260902093559 76 160 0.0 0.0 0.00 0.00 0.00 86 1014.8
20260902093054 76 159 0.0 0.0 0.00 0.00 0.00 86 1015.1
20260902092549 76 157 0.0 0.0 0.00 0.00 0.00 85 1014.8
20260902092044 76 154 0.0 0.0 0.00 0.00 0.00 85 1014.9
20260902091539 76 151 0.0 0.0 0.00 0.00 0.00 85 1015.0
20260902091036 76 156 0.0 0.0 0.00 0.00 0.00 84 1015.0
20260902090531 76 158 0.0 0.0 0.00 0.00 0.00 85 1015.1
20260902090030 76 159 0.0 0.0 0.00 0.00 0.00 85 1015.0
20260902085530 76 161 0.0 0.0 0.00 0.00 0.00 85 1014.9
20260902085026 76 157 0.0 0.0 0.00 0.00 0.00 86 1014.9
20260902084522 76 157 0.0 0.0 0.00 0.00 0.00 86 1015.0
20260902084017 76 157 0.0 0.0 0.00 0.00 0.00 86 1015.1
20260902083512 76 160 0.0 0.0 0.00 0.00 0.00 86 1015.0
20260902083006 76 158 0.0 0.0 0.00 0.00 0.00 85 1015.2
20260902082502 76 157 0.0 0.0 0.00 0.00 0.00 85 1015.1
20260902081959 76 157 0.0 0.0 0.00 0.00 0.00 84 1015.1
20260902081455 76 156 0.0 0.0 0.00 0.00 0.00 84 1015.1
20260902080949 77 159 0.0 0.0 0.00 0.00 0.00 83 1015.1
20260902080445 77 160 0.0 0.0 0.00 0.00 0.00 83 1015.2
20260902075945 77 161 0.0 0.0 0.00 0.00 0.00 83 1015.2
20260902075442 77 158 0.0 0.0 0.00 0.00 0.00 83 1015.2
20260902074942 77 151 0.0 0.0 0.00 0.00 0.00 83 1015.2
20260902074437 77 155 0.0 0.0 0.00 0.00 0.00 82 1015.4
20260902073932 78 154 0.0 0.0 0.00 0.00 0.00 82 1015.4
20260902073428 78 151 0.0 0.0 0.00 0.00 0.00 81 1015.4
20260902072924 78 148 0.0 0.0 0.00 0.00 0.00 81 1015.6
20260902072420 78 154 0.0 0.0 0.00 0.00 0.00 81 1015.8
20260902071916 78 151 0.0 0.0 0.00 0.00 0.00 81 1015.6
20260902071415 78 147 0.0 0.0 0.00 0.00 0.00 81 1015.7
20260902070912 78 138 0.0 0.0 0.00 0.00 0.00 80 1015.9
20260902070408 78 148 1.0 2.0 0.00 0.00 0.00 80 1015.8
20260902065906 78 145 2.0 2.0 0.00 0.00 0.00 79 1015.8
20260902065401 78 152 0.0 0.0 0.00 0.00 0.00 79 1015.9
20260902064856 78 158 0.0 0.0 0.00 0.00 0.00 79 1015.8
20260902064353 79 158 0.0 0.0 0.00 0.00 0.00 79 1015.9
20260902063848 79 148 0.0 2.0 0.00 0.00 0.00 78 1015.9
20260902063348 79 157 0.0 0.0 0.00 0.00 0.00 78 1016.0
20260902062843 79 151 0.0 0.0 0.00 0.00 0.00 77 1016.0
20260902062343 79 158 0.0 0.0 0.00 0.00 0.00 77 1015.9
20260902061842 79 155 0.0 0.0 0.00 0.00 0.00 76 1015.8
20260902061338 80 155 0.0 0.0 0.00 0.00 0.00 77 1015.9
20260902060834 80 151 0.0 0.0 0.00 0.00 0.00 77 1015.9
20260902060329 80 149 0.0 0.0 0.00 0.00 0.00 76 1015.7
20260902055825 80 146 0.0 0.0 0.00 0.00 0.00 76 1015.7
20260902055321 80 171 0.0 0.0 0.00 0.00 0.00 76 1015.7
20260902054816 80 157 0.0 0.0 0.00 0.00 0.00 76 1015.7
20260902054311 80 153 0.0 0.0 0.00 0.00 0.00 75 1015.7
20260902053807 80 126 1.0 2.0 0.00 0.00 0.00 76 1015.7
20260902053301 80 139 0.0 0.0 0.00 0.00 0.00 76 1015.5
20260902052800 80 135 0.0 0.0 0.00 0.00 0.00 75 1015.5
20260902052256 80 143 0.0 0.0 0.00 0.00 0.00 76 1015.6
20260902051755 80 147 0.0 0.0 0.00 0.00 0.00 75 1015.5
20260902051250 80 147 0.0 0.0 0.00 0.00 0.00 75 1015.6
20260902050745 80 143 0.0 0.0 0.00 0.00 0.00 75 1015.6
20260902050240 81 144 0.0 0.0 0.00 0.00 0.00 76 1015.5
20260902045740 81 142 0.0 0.0 0.00 0.00 0.00 75 1015.8
20260902045236 81 139 0.0 0.0 0.00 0.00 0.00 74 1015.7
20260902044732 82 152 0.0 0.0 0.00 0.00 0.00 73 1015.7
20260902044226 82 133 1.0 2.0 0.00 0.00 0.00 72 1015.7
20260902043722 82 141 0.0 0.0 0.00 0.00 0.00 71 1015.5
20260902043217 82 148 0.0 0.0 0.00 0.00 0.00 71 1015.7
20260902042716 82 155 0.0 0.0 0.00 0.00 0.00 71 1015.8
20260902042211 83 153 0.0 0.0 0.00 0.00 0.00 71 1015.6
20260902041706 83 139 0.0 0.0 0.00 0.00 0.00 70 1015.8
20260902041201 83 138 0.0 0.0 0.00 0.00 0.00 70 1015.5
20260902040701 84 132 0.0 0.0 0.00 0.00 0.00 69 1015.5
20260902040156 84 138 4.0 5.0 0.00 0.00 0.00 68 1015.3
20260902035654 84 152 2.0 2.0 0.00 0.00 0.00 68 1015.4
20260902035150 84 127 8.0 10.0 0.00 0.00 0.00 68 1015.4
20260902034649 84 105 4.0 5.0 0.00 0.00 0.00 67 1015.5
20260902034148 84 147 2.0 3.0 0.00 0.00 0.00 67 1015.4
20260902033647 85 136 5.0 5.0 0.00 0.00 0.00 67 1015.2
20260902033142 85 141 5.0 7.0 0.00 0.00 0.00 67 1015.3
20260902032641 85 161 4.0 5.0 0.00 0.00 0.00 66 1015.2
20260902032136 86 110 7.0 9.0 0.00 0.00 0.00 65 1015.2
20260902031636 86 148 11.0 14.0 0.00 0.00 0.00 65 1014.9
20260902031132 86 126 7.0 9.0 0.00 0.00 0.00 65 1014.9
20260902030628 86 134 7.0 9.0 0.00 0.00 0.00 64 1014.7
20260902030127 86 103 7.0 9.0 0.00 0.00 0.00 64 1015.0
20260902025626 87 96 6.0 7.0 0.00 0.00 0.00 64 1014.5
20260902025122 87 95 11.0 12.0 0.00 0.00 0.00 63 1014.5
20260902024617 87 107 8.0 10.0 0.00 0.00 0.00 62 1014.6
20260902024112 87 115 6.0 7.0 0.00 0.00 0.00 61 1014.3
20260902023608 87 119 7.0 9.0 0.00 0.00 0.00 60 1014.5
20260902023103 87 127 7.0 9.0 0.00 0.00 0.00 60 1014.2
20260902022602 86 119 8.0 9.0 0.00 0.00 0.00 62 1014.0
20260902022058 86 131 4.0 5.0 0.00 0.00 0.00 63 1013.9
20260902021553 86 142 2.0 3.0 0.00 0.00 0.00 62 1013.8
20260902021048 86 143 2.0 3.0 0.00 0.00 0.00 63 1013.6
20260902020538 86 143 2.0 2.0 0.00 0.00 0.00 62 1013.6
20260902020034 87 143 2.0 3.0 0.00 0.00 0.00 62 1013.5
20260902015530 87 134 2.0 3.0 0.00 0.00 0.00 61 1013.3
20260902015025 87 133 4.0 5.0 0.00 0.00 0.00 61 1013.4
20260902014521 87 135 3.0 3.0 0.00 0.00 0.00 60 1013.3
20260902014017 88 137 3.0 3.0 0.00 0.00 0.00 59 1013.2
20260902013511 88 148 1.0 2.0 0.00 0.00 0.00 59 1013.2
20260902013007 89 139 2.0 3.0 0.00 0.00 0.00 58 1013.3
20260902012501 89 151 4.0 5.0 0.00 0.00 0.00 56 1013.2
20260902011957 89 131 3.0 3.0 0.00 0.00 0.00 56 1013.2
20260902011453 89 137 3.0 3.0 0.00 0.00 0.00 57 1013.0
20260902010952 90 136 3.0 3.0 0.00 0.00 0.00 56 1013.2
20260902010446 90 132 3.0 3.0 0.00 0.00 0.00 55 1013.0
20260902005945 91 146 0.0 0.0 0.00 0.00 0.00 55 1013.1
20260902005444 91 148 0.0 0.0 0.00 0.00 0.00 54 1013.1
20260902004941 92 148 1.0 2.0 0.00 0.00 0.00 53 1013.0
20260902004440 92 132 2.0 2.0 0.00 0.00 0.00 52 1013.0
20260902003936 92 156 1.0 2.0 0.00 0.00 0.00 52 1013.0
20260902003436 93 140 2.0 2.0 0.00 0.00 0.00 51 1012.9
20260902002931 93 149 0.0 0.0 0.00 0.00 0.00 51 1013.1
20260902002426 93 116 2.0 3.0 0.00 0.00 0.00 50 1013.0
20260902001926 93 137 5.0 5.0 0.00 0.00 0.00 50 1013.1
20260902001421 93 149 4.0 5.0 0.00 0.00 0.00 49 1013.1
20260902000916 94 113 3.0 5.0 0.00 0.00 0.00 48 1013.0
20260902000414 94 133 4.0 5.0 0.00 0.00 0.00 48 1013.3
20260901235906 94 162 4.0 7.0 0.00 0.00 0.00 48 1013.2
20260901235407 94 135 4.0 5.0 0.00 0.00 0.00 48 1013.3
20260901234902 94 116 5.0 7.0 0.00 0.00 0.00 49 1013.3
20260901234355 94 147 2.0 3.0 0.00 0.00 0.00 49 1013.0
20260901233850 95 108 5.0 7.0 0.00 0.00 0.00 48 1013.2
20260901233346 95 145 5.0 7.0 0.00 0.00 0.00 48 1013.1
20260901232842 96 132 4.0 5.0 0.00 0.00 0.00 45 1013.2
20260901232337 96 139 4.0 5.0 0.00 0.00 0.00 44 1013.3
20260901231833 96 149 2.0 5.0 0.00 0.00 0.00 44 1013.3
20260901231329 96 143 2.0 3.0 0.00 0.00 0.00 44 1013.2
20260901230825 96 112 5.0 5.0 0.00 0.00 0.00 44 1013.4
20260901230324 97 141 1.0 2.0 0.00 0.00 0.00 44 1013.3
20260901225814 97 153 5.0 7.0 0.00 0.00 0.00 43 1013.2
20260901225308 97 151 7.0 10.0 0.00 0.00 0.00 43 1013.1
20260901224804 100 143 7.0 10.0 0.00 0.00 0.00 42 1013.1
20260901224300 99 123 0.0 2.0 0.00 0.00 0.00 41 1013.3
20260901223756 100 70 5.0 7.0 0.00 0.00 0.00 40 1013.2
20260901223255 101 111 2.0 5.0 0.00 0.00 0.00 38 1013.3
20260901222752 102 148 2.0 3.0 0.00 0.00 0.00 38 1013.2
20260901222248 101 104 5.0 7.0 0.00 0.00 0.00 40 1013.3
20260901221743 99 114 3.0 5.0 0.00 0.00 0.00 40 1013.3
20260901221239 99 111 12.0 15.0 0.00 0.00 0.00 40 1013.2
20260901220739 102 114 7.0 15.0 0.00 0.00 0.00 39 1013.3
20260901220238 101 126 9.0 14.0 0.00 0.00 0.00 40 1013.4
20260901215737 100 159 0.0 2.0 0.00 0.00 0.00 41 1013.3
20260901215231 101 131 5.0 5.0 0.00 0.00 0.00 40 1013.2
20260901214730 101 147 1.0 3.0 0.00 0.00 0.00 39 1013.4
20260901214224 102 128 2.0 3.0 0.00 0.00 0.00 39 1013.6
20260901213724 101 182 2.0 3.0 0.00 0.00 0.00 39 1013.4
20260901213223 101 82 4.0 7.0 0.00 0.00 0.00 38 1013.4
20260901212723 101 135 9.0 12.0 0.00 0.00 0.00 39 1013.6
20260901212219 101 159 2.0 3.0 0.00 0.00 0.00 40 1013.6
20260901211714 102 115 11.0 15.0 0.00 0.00 0.00 39 1013.5
20260901211210 101 167 1.0 2.0 0.00 0.00 0.00 39 1013.6
20260901210700 99 167 1.0 3.0 0.00 0.00 0.00 40 1013.7
20260901210155 100 96 8.0 15.0 0.00 0.00 0.00 41 1013.9
20260901205652 100 121 2.0 3.0 0.00 0.00 0.00 42 1013.9
20260901205151 98 152 2.0 3.0 0.00 0.00 0.00 44 1013.9
20260901204647 97 154 2.0 3.0 0.00 0.00 0.00 46 1013.9
20260901204142 96 145 2.0 2.0 0.00 0.00 0.00 47 1014.0
20260901203636 96 132 3.0 3.0 0.00 0.00 0.00 47 1014.2
20260901203131 95 134 6.0 9.0 0.00 0.00 0.00 48 1014.4
20260901202631 96 116 7.0 10.0 0.00 0.00 0.00 47 1014.3
20260901202127 96 111 6.0 7.0 0.00 0.00 0.00 47 1014.4
20260901201623 98 122 2.0 7.0 0.00 0.00 0.00 45 1014.5
20260901201122 97 139 4.0 5.0 0.00 0.00 0.00 46 1014.5
20260901200621 98 153 0.0 0.0 0.00 0.00 0.00 45 1014.5
20260901200116 98 132 6.0 7.0 0.00 0.00 0.00 45 1014.5
20260901195614 97 136 0.0 0.0 0.00 0.00 0.00 44 1014.6
20260901195109 98 150 0.0 0.0 0.00 0.00 0.00 44 1014.6
20260901194604 97 150 1.0 2.0 0.00 0.00 0.00 45 1014.8
20260901194100 96 122 1.0 2.0 0.00 0.00 0.00 45 1014.9
20260901193555 97 103 12.0 15.0 0.00 0.00 0.00 44 1014.9
20260901193049 99 123 2.0 3.0 0.00 0.00 0.00 44 1014.9
20260901192544 100 198 3.0 3.0 0.00 0.00 0.00 42 1014.8
20260901192040 100 118 2.0 3.0 0.00 0.00 0.00 42 1015.1
20260901191536 98 171 0.0 0.0 0.00 0.00 0.00 44 1015.1
20260901191032 97 154 0.0 2.0 0.00 0.00 0.00 46 1015.0
20260901190527 100 159 2.0 3.0 0.00 0.00 0.00 43 1015.2
20260901190027 100 128 1.0 2.0 0.00 0.00 0.00 42 1015.2
20260901185525 98 141 4.0 5.0 0.00 0.00 0.00 45 1015.4
20260901185024 96 171 3.0 3.0 0.00 0.00 0.00 46 1015.5
20260901184520 96 148 3.0 3.0 0.00 0.00 0.00 48 1015.7
20260901184015 97 148 4.0 5.0 0.00 0.00 0.00 47 1015.6
20260901183515 99 153 6.0 7.0 0.00 0.00 0.00 46 1015.6
20260901183010 99 142 7.0 9.0 0.00 0.00 0.00 46 1015.7
20260901182506 100 172 4.0 5.0 0.00 0.00 0.00 44 1016.0
20260901182001 98 170 1.0 2.0 0.00 0.00 0.00 47 1015.9
20260901181501 99 140 4.0 5.0 0.00 0.00 0.00 46 1016.1
20260901181000 99 177 2.0 3.0 0.00 0.00 0.00 46 1016.0
20260901180459 99 134 2.0 2.0 0.00 0.00 0.00 48 1016.1
20260901175957 97 58 2.0 3.0 0.00 0.00 0.00 49 1016.4
20260901175453 98 162 0.0 2.0 0.00 0.00 0.00 48 1016.2
20260901174947 98 55 5.0 9.0 0.00 0.00 0.00 47 1016.5
20260901174443 97 107 10.0 10.0 0.00 0.00 0.00 49 1016.4
20260901173939 96 133 1.0 2.0 0.00 0.00 0.00 48 1016.6
20260901173433 96 221 7.0 10.0 0.00 0.00 0.00 48 1016.6
20260901172930 95 141 7.0 9.0 0.00 0.00 0.00 51 1016.8
20260901172425 94 176 5.0 7.0 0.00 0.00 0.00 50 1017.0
20260901171923 96 114 11.0 12.0 0.00 0.00 0.00 48 1017.1
20260901171422 97 146 0.0 2.0 0.00 0.00 0.00 47 1017.0
20260901170920 96 139 0.0 2.0 0.00 0.00 0.00 48 1017.2
20260901170415 94 135 0.0 0.0 0.00 0.00 0.00 53 1017.4
20260901165909 95 197 6.0 9.0 0.00 0.00 0.00 50 1017.1
20260901165403 95 132 2.0 3.0 0.00 0.00 0.00 51 1017.4
20260901164900 95 211 3.0 5.0 0.00 0.00 0.00 51 1017.0
20260901164355 94 180 4.0 5.0 0.00 0.00 0.00 52 1017.1
20260901163849 94 169 3.0 7.0 0.00 0.00 0.00 52 1017.3
20260901163344 94 193 4.0 5.0 0.00 0.00 0.00 52 1017.3
20260901162839 94 156 7.0 10.0 0.00 0.00 0.00 51 1017.4
20260901162338 94 83 6.0 9.0 0.00 0.00 0.00 52 1017.4
20260901161837 93 128 4.0 7.0 0.00 0.00 0.00 53 1017.5
20260901161332 93 112 3.0 5.0 0.00 0.00 0.00 53 1017.6
20260901160827 93 211 5.0 7.0 0.00 0.00 0.00 55 1017.6
20260901160324 93 167 1.0 2.0 0.00 0.00 0.00 56 1017.6
20260901155822 92 165 1.0 2.0 0.00 0.00 0.00 57 1017.6
20260901155317 92 165 2.0 3.0 0.00 0.00 0.00 58 1017.6
20260901154814 91 175 3.0 3.0 0.00 0.00 0.00 57 1017.5